[[{"header":{"parameterUnit":"m.s-1","parameterCategory":1,"la1":30.2991,"la2":30.254,"lo1":-89.0895,"lo2":-89.0444,"dy":0.0017,"dx":0.0017,"nx":28,"ny":28,"refTime":"2025-04-21T03:00:00:Z","depth":0,"parameterNumber":2,"parameterNumberName":"U-component_of_WINDS"},"data":[0,0,0,0,0,0,0,0,0,0,0,0,0,0,0,0,0,0,0,0,0,0,0,0,0,0,0,0,0,0,0,0,0,0,0,0,0,0,0,0,0,0,0,0,0,0,0,0,0,0,0,0,0,0,0,0,0,0,-2.7513,-2.7513,0,-2.7538,-2.7538,-2.7539,-2.7531,-2.753,-2.753,-2.7529,-2.7554,-2.7555,-2.7557,0,0,0,0,0,0,0,0,0,0,0,0,0,-2.7458,-2.7459,-2.7513,-2.7513,-2.7513,-2.7538,-2.7538,-2.7539,-2.7531,-2.753,-2.753,-2.7529,-2.7554,-2.7555,-2.7557,0,0,0,0,0,0,0,0,0,0,0,0,0,-2.7482,-2.7459,-2.7513,-2.7512,-2.7513,-2.7538,-2.7538,-2.7539,-2.7531,-2.753,-2.7529,-2.7529,-2.7553,-2.7555,-2.7557,-2.7584,0,0,-2.7562,-2.7563,0,0,0,0,0,0,0,0,-2.7481,-2.7484,-2.7512,-2.7512,-2.7513,-2.753,-2.7528,-2.7554,-2.7531,-2.7524,-2.7529,-2.7528,-2.7547,-2.7549,-2.7556,-2.7585,-2.7586,-2.7562,-2.7563,-2.7564,-2.7565,0,0,0,0,0,0,0,-2.7479,-2.7483,-2.7523,-2.7513,-2.7513,-2.7511,-2.7514,-2.7533,-2.754,-2.7525,-2.7524,-2.7527,-2.7547,-2.7554,-2.7556,-2.7586,-2.7562,-2.7564,-2.7565,-2.7566,-2.764,-2.7641,0,0,0,0,0,0,-2.7477,-2.7482,-2.7522,-2.7524,-2.7495,-2.7513,-2.7516,-2.7526,-2.7539,-2.7541,-2.7528,-2.7527,-2.7551,-2.7554,-2.7557,-2.7589,-2.7564,-2.7566,-2.7567,-2.7639,-2.764,-2.7641,0,0,0,0,0,0,-2.7476,-2.7481,-2.7521,-2.7503,-2.7508,-2.7515,-2.7526,-2.7527,-2.7533,-2.7542,-2.7543,-2.7534,-2.7551,-2.7555,-2.7577,-2.759,-2.7567,-2.7568,-2.7638,-2.7639,-2.764,-2.7654,0,0,0,0,0,0,-2.7475,-2.7481,-2.7491,-2.7503,-2.7509,-2.7541,-2.7527,-2.7528,-2.7537,-2.7535,-2.7548,-2.7549,-2.7551,-2.7575,-2.7579,-2.7592,-2.757,-2.7637,-2.7638,-2.764,-2.7652,-2.7655,-2.7658,0,0,0,0,0,-2.7473,-2.7493,-2.7491,-2.7496,-2.7521,-2.7541,-2.7545,-2.7546,-2.7538,-2.7548,-2.7554,-2.7549,-2.7589,-2.7577,-2.7582,-2.7596,-2.7636,-2.7638,-2.764,-2.7651,-2.7655,-2.7658,0,0,0,0,0,0,-2.7481,-2.7495,-2.7493,-2.7518,-2.7529,-2.754,-2.7553,-2.755,-2.7563,-2.7562,-2.7563,-2.7566,-2.7589,-2.7595,-2.7582,-2.7623,-2.7611,-2.7614,-2.7618,-2.7621,-2.7624,-2.7622,-2.7571,0,0,0,0,0,-2.7487,-2.7502,-2.7513,-2.7534,-2.7539,-2.7545,-2.7554,-2.7555,-2.7566,-2.757,-2.7577,-2.7588,-2.7603,-2.7613,-2.7627,-2.7654,-2.7656,-2.7666,-2.7669,-2.7671,-2.7673,-2.7688,-2.7692,-2.7648,-2.7648,-2.7648,0,0,-2.7497,-2.7506,-2.7515,-2.7536,-2.7544,-2.756,-2.7549,-2.7566,-2.7578,-2.7573,-2.7594,-2.76,-2.7613,-2.7638,-2.7649,-2.7643,-2.7687,-2.7674,-2.7676,-2.7676,-2.769,-2.7694,-2.7698,-2.7649,-2.7649,-2.7649,0,0,-2.7523,-2.7531,-2.755,-2.7559,-2.7572,-2.7576,-2.7581,-2.7593,-2.7597,-2.762,-2.7616,-2.7631,-2.7656,-2.7665,-2.7673,-2.7705,-2.7701,-2.771,-2.7725,-2.7739,-2.7742,-2.7745,-2.7756,-2.776,-2.7712,-2.7713,-2.7713,0,-2.7533,-2.7557,-2.756,-2.7577,-2.7586,-2.7584,-2.7602,-2.7611,-2.7628,-2.7635,-2.7629,-2.7661,-2.767,-2.7696,-2.7704,-2.7711,-2.7716,-2.7707,-2.7742,-2.7745,-2.7748,-2.7758,-2.7762,-2.7713,-2.7713,-2.7713,-2.7713,0,-2.7569,-2.7585,-2.7599,-2.7616,-2.7627,-2.7645,-2.7651,-2.7662,-2.7662,-2.7667,-2.769,-2.77,-2.7717,-2.7724,-2.7724,-2.7751,-2.7747,-2.7741,-2.7729,-2.7753,-2.7762,-2.7766,-2.7715,-2.7714,-2.7714,-2.7714,0,0,-2.7599,-2.7619,-2.7623,-2.7631,-2.7647,-2.766,-2.7678,-2.7695,-2.7704,-2.7717,-2.7732,-2.7755,-2.775,-2.7759,-2.7761,-2.7774,-2.7798,-2.7767,-2.7767,-2.7771,-2.7828,-2.783,-2.7835,-2.7796,-2.7797,-2.7797,-2.7826,0,-2.7625,-2.7657,-2.7661,-2.769,-2.7705,-2.7704,-2.772,-2.7732,-2.7737,-2.7751,-2.7758,-2.7774,-2.7767,-2.7772,-2.7785,-2.7792,-2.7809,-2.779,-2.7809,-2.781,-2.7804,-2.784,-2.7843,-2.7869,-2.783,-2.7831,-2.7831,0,-2.766,-2.7674,-2.7704,-2.7718,-2.7725,-2.7739,-2.7755,-2.7769,-2.7782,-2.7785,-2.7796,-2.7797,-2.7816,-2.7805,-2.7832,-2.7819,-2.7828,-2.7833,-2.7834,-2.7834,-2.7821,-2.784,-2.7878,-2.7881,-2.7837,-2.7837,-2.7836,0,-2.7677,-2.7704,-2.7725,-2.7732,-2.775,-2.776,-2.7767,-2.778,-2.779,-2.7804,-2.7811,-2.7827,-2.7836,-2.7849,-2.7854,-2.7845,-2.788,-2.7869,-2.7883,-2.7883,-2.7888,-2.7888,-2.7927,-2.7897,-2.7897,-2.7897,-2.7897,0,-2.7705,-2.7723,-2.7733,-2.7746,-2.7767,-2.7772,-2.7793,-2.78,-2.7812,-2.7826,-2.7827,-2.7841,-2.7847,-2.7862,-2.7867,-2.7888,-2.7892,-2.7895,-2.7895,-2.7894,-2.7893,-2.7898,-2.7896,-2.7898,-2.7898,-2.7897,-2.7897,0,-2.7727,-2.7735,-2.7758,-2.7773,-2.7777,-2.7792,-2.7805,-2.7817,-2.7824,-2.7843,-2.7847,-2.7857,-2.7875,-2.7882,-2.7904,-2.7907,-2.7931,-2.7931,-2.7926,-2.7926,-2.7938,-2.7937,-2.798,-2.7986,-2.7954,-2.7954,-2.7955,0,-2.7743,-2.7757,-2.7774,-2.7784,-2.7792,-2.7809,-2.7819,-2.7825,-2.7836,-2.7854,-2.7864,-2.7882,-2.7896,-2.7925,-2.7934,-2.7951,-2.795,-2.7965,-2.7953,-2.7951,-2.7949,-2.7948,-2.7949,-2.7966,-2.7967,-2.7967,-2.7967,0,-2.7772,-2.7775,-2.779,-2.7807,-2.782,-2.7833,-2.7846,-2.7854,-2.7863,-2.7875,-2.7894,-2.7905,-2.7928,-2.7945,-2.7963,-2.7971,-2.797,-2.7971,-2.7975,-2.7972,-2.7969,-2.797,-2.793,-2.797,-2.7969,-2.7969,-2.7969,-2.7969,-2.779,-2.7803,-2.7817,-2.7834,-2.7845,-2.7857,-2.787,-2.7879,-2.7894,-2.7913,-2.7917,-2.7936,-2.795,-2.7974,-2.7983,-2.7999,-2.7995,-2.8,-2.8002,-2.8003,-2.8003,-2.7968,-2.8002,-2.8002,-2.8002,-2.8002,-2.8002,0,-2.7818,-2.7827,-2.7843,-2.7861,-2.7875,-2.7875,-2.789,-2.7901,-2.7918,-2.7932,-2.7946,-2.7968,-2.7985,-2.7997,-2.8014,-2.8025,-2.8025,-2.8029,-2.8027,-2.8029,-2.8006,-2.8,-2.8028,-2.8028,-2.8028,-2.8028,-2.8028,-2.8028,-2.7833,-2.7854,-2.786,-2.7887,-2.7896,-2.7915,-2.7924,-2.7936,-2.7946,-2.797,-2.7985,-2.7993,-2.8005,-2.8024,-2.8041,-2.8044,-2.8049,-2.8054,-2.8056,-2.8034,-2.8031,-2.8028,-2.8023,-2.8055,-2.8055,-2.8078,-2.8078,-2.8079]},{"header":{"parameterUnit":"m.s-1","parameterCategory":1,"la1":30.2991,"la2":30.254,"lo1":-89.0895,"lo2":-89.0444,"dy":0.0017,"dx":0.0017,"nx":28,"ny":28,"refTime":"2025-04-21T03:00:00:Z","depth":0,"parameterNumber":3,"parameterNumberName":"V-component_of_WINDS"},"data":[0,0,0,0,0,0,0,0,0,0,0,0,0,0,0,0,0,0,0,0,0,0,0,0,0,0,0,0,0,0,0,0,0,0,0,0,0,0,0,0,0,0,0,0,0,0,0,0,0,0,0,0,0,0,0,0,0,0,4.3833,4.3832,0,4.3768,4.3767,4.3767,4.3733,4.3733,4.3733,4.3733,4.3659,4.3657,4.3655,0,0,0,0,0,0,0,0,0,0,0,0,0,4.3923,4.3921,4.3833,4.3832,4.3831,4.3768,4.3767,4.3766,4.3733,4.3733,4.3733,4.3733,4.366,4.3658,4.3655,0,0,0,0,0,0,0,0,0,0,0,0,0,4.3873,4.3921,4.3833,4.3807,4.3804,4.3768,4.3767,4.3766,4.3733,4.3733,4.3733,4.3733,4.3661,4.3658,4.3655,4.3637,0,0,4.3646,4.3645,0,0,0,0,0,0,0,0,4.3876,4.387,4.3812,4.3809,4.3805,4.3759,4.3772,4.3723,4.3733,4.376,4.3733,4.3733,4.3692,4.3686,4.3674,4.3634,4.3631,4.3646,4.3644,4.3643,4.3642,0,0,0,0,0,0,0,4.388,4.3873,4.3807,4.3811,4.3807,4.3797,4.379,4.3763,4.3726,4.3757,4.3755,4.3748,4.369,4.3677,4.3672,4.363,4.3646,4.3643,4.3641,4.364,4.3577,4.3577,0,0,0,0,0,0,4.3888,4.3876,4.3809,4.3805,4.3842,4.3796,4.3788,4.3774,4.3727,4.372,4.3748,4.3747,4.3682,4.3676,4.3669,4.3649,4.3643,4.364,4.3638,4.3577,4.3577,4.3577,0,0,0,0,0,0,4.389,4.3882,4.3811,4.384,4.383,4.3794,4.3779,4.3772,4.3759,4.372,4.3713,4.3742,4.3682,4.3673,4.3647,4.3646,4.3639,4.3636,4.3576,4.3577,4.3577,4.3606,0,0,0,0,0,0,4.3893,4.3883,4.3877,4.384,4.3829,4.3792,4.3778,4.3771,4.3755,4.3753,4.3712,4.3705,4.3681,4.3652,4.3644,4.3641,4.3634,4.3576,4.3577,4.3577,4.3604,4.3607,4.3608,0,0,0,0,0,4.3896,4.3885,4.3877,4.3869,4.382,4.3792,4.3785,4.376,4.3755,4.3748,4.3724,4.3706,4.3647,4.3649,4.3641,4.3637,4.3576,4.3576,4.3577,4.3604,4.3606,4.3608,0,0,0,0,0,0,4.3919,4.3879,4.387,4.3847,4.3824,4.3786,4.3776,4.3762,4.3737,4.3736,4.3703,4.3695,4.3672,4.3651,4.3655,4.362,4.361,4.3609,4.3634,4.3636,4.3638,4.3643,4.3631,0,0,0,0,0,4.3922,4.3904,4.3869,4.3852,4.3842,4.3811,4.3798,4.3781,4.3754,4.3743,4.3716,4.3689,4.3665,4.3649,4.3624,4.3602,4.3594,4.3595,4.3597,4.3599,4.3598,4.3588,4.3589,4.3577,4.3577,4.3577,0,0,4.3926,4.3903,4.3892,4.3857,4.3836,4.3818,4.3803,4.3782,4.3768,4.3739,4.3714,4.3694,4.3662,4.3639,4.3627,4.3621,4.36,4.3599,4.3601,4.3599,4.3588,4.3589,4.359,4.3577,4.3577,4.3577,0,0,4.3925,4.3905,4.3891,4.3872,4.3844,4.3824,4.3821,4.3787,4.3774,4.3749,4.3728,4.371,4.3668,4.3647,4.3631,4.3629,4.3612,4.3621,4.3631,4.3621,4.3622,4.3623,4.3624,4.3624,4.362,4.362,4.362,0,4.3933,4.3906,4.3884,4.3867,4.3852,4.383,4.3815,4.3797,4.376,4.3751,4.3745,4.3696,4.3672,4.3646,4.3646,4.3633,4.3628,4.3625,4.3625,4.3625,4.3625,4.3626,4.3626,4.3622,4.3621,4.3621,4.3621,0,4.3919,4.3901,4.3892,4.3863,4.3847,4.383,4.3805,4.3792,4.3778,4.376,4.3736,4.3708,4.3679,4.3672,4.3656,4.3644,4.3642,4.3631,4.3621,4.3628,4.3628,4.3628,4.3624,4.3623,4.3623,4.3622,0,0,4.3927,4.3889,4.3887,4.3875,4.3844,4.3828,4.3812,4.3787,4.3777,4.3754,4.374,4.3708,4.37,4.3681,4.3663,4.3655,4.3658,4.3646,4.3645,4.365,4.3647,4.3655,4.3656,4.3648,4.3648,4.3648,4.365,0,4.3922,4.3895,4.3876,4.3855,4.3839,4.382,4.3806,4.3786,4.3769,4.3752,4.3732,4.3712,4.3701,4.3691,4.3682,4.366,4.3657,4.3659,4.3634,4.3634,4.3644,4.3655,4.3663,4.3666,4.3649,4.3649,4.3649,0,4.3912,4.3895,4.3873,4.3849,4.3841,4.3829,4.3807,4.3791,4.3768,4.3757,4.374,4.3723,4.3705,4.3698,4.3674,4.3676,4.3665,4.3654,4.3653,4.3649,4.3642,4.3653,4.3666,4.3667,4.3649,4.3649,4.3649,0,4.3923,4.3893,4.3877,4.3867,4.3837,4.383,4.3816,4.3794,4.3782,4.3762,4.3754,4.3731,4.3719,4.3702,4.368,4.3676,4.3659,4.3649,4.3649,4.365,4.3645,4.3646,4.3658,4.3638,4.3638,4.3638,4.3638,0,4.3919,4.3907,4.3882,4.3872,4.3859,4.3838,4.3825,4.381,4.3791,4.3778,4.376,4.3747,4.3719,4.3704,4.3686,4.367,4.3664,4.3655,4.365,4.3656,4.3658,4.3648,4.3648,4.3638,4.3638,4.3638,4.3638,0,4.3927,4.391,4.3892,4.3867,4.3861,4.3853,4.3831,4.3821,4.3805,4.3789,4.3784,4.3759,4.3741,4.3718,4.369,4.3679,4.3665,4.3658,4.3674,4.3671,4.3673,4.3674,4.3679,4.368,4.366,4.366,4.366,0,4.3926,4.3918,4.3894,4.3886,4.3874,4.386,4.3849,4.3829,4.3818,4.3795,4.3788,4.3769,4.3753,4.3724,4.3703,4.3683,4.3675,4.3679,4.3672,4.368,4.3677,4.3678,4.3678,4.368,4.3681,4.3681,4.3681,0,4.3927,4.3921,4.3906,4.3891,4.388,4.3865,4.385,4.3844,4.3821,4.381,4.3793,4.3781,4.3756,4.3738,4.3717,4.3702,4.3688,4.3684,4.3683,4.3689,4.37,4.3696,4.368,4.3683,4.3683,4.3683,4.3683,4.3683,4.3931,4.3924,4.3908,4.3894,4.3882,4.3869,4.386,4.3846,4.3832,4.3813,4.3802,4.3786,4.3766,4.3737,4.3724,4.3711,4.3705,4.3703,4.3703,4.3703,4.3706,4.3703,4.3706,4.3706,4.3706,4.3706,4.3706,0,4.3932,4.3922,4.391,4.3892,4.3882,4.3874,4.3858,4.3849,4.3836,4.3821,4.3807,4.3789,4.3773,4.3753,4.3735,4.3729,4.3722,4.3725,4.3725,4.3722,4.3711,4.3714,4.3731,4.3731,4.3731,4.3731,4.3731,4.3731,4.3932,4.392,4.3912,4.3895,4.3884,4.3871,4.3863,4.3852,4.384,4.3822,4.381,4.3798,4.3782,4.3764,4.3749,4.3743,4.3738,4.3743,4.3735,4.3725,4.3722,4.372,4.3723,4.3741,4.3741,4.3748,4.3748,4.3748]}]]